SL-12 DEB, 41692

Orbit data source: Space-Track

SL-12 DEB, 41692 is space debris in HEO originally from a launch on Fri, 26 Oct 2007 UTC launched from the Tyuratam Missile And Space Complex (TTMTR). Debris objects in space refer to the collection of defunct objects orbiting the Earth. Examples of debris include non-operational satellites, rocket bodies, and fragments generated from explosions, collisions, or faulty payload assembly.

Loading next visibility...
Identifier
41692, 2007-052Z
Orbit
HEO
Country
Flag of CISCIS
Related business
Manufacturer
RKKE
Mission
Spacecraft
Bus & Motor
Unknown
Mass
Unknown
Launch date (UTC)
2007-10-26 (19 years ago)
Launch vehicle
Unknown
Launch site
Tyuratam Missile And Space Complex (TTMTR)
Object type
Payload
Rocket body
Debris
Shape & HBR
Unknown shape, 0.6 m
Radar Cross Section
Small (<0.1 m²)

Expand to show TLE details & history
Last TLE update: 22 hours ago

TLE from 22 hours ago
0 SL-12 DEB
1 41692U 07052Z   26129.56639011  .00001094  00000-0  26179-2 0  9998
2 41692  65.3928 236.0559 5603585 240.2373  53.0398  4.42020644 86097
Epoch: 2026-05-09T13:35Z
TLE epoch observation values (Epoch: 2026-05-09T13:35:36.105Z)
Latitude
0.00003°
Longitude
164.77351°
Altitude
8,543.189 km
Speed
5.293 km/s
True Right ascension
15h 44m 13s
True Declination
0° 00' 00"
Sunlit
Object was in full shadow at epoch
Visualization orbit readout
Latitude
Unknown
Longitude
Unknown
Altitude
Unknown
Speed
Unknown
Apparent Right ascension
Unknown
Apparent Declination
Unknown
Sunlit
N/A
Visualization observer readout
Local Sidereal Time
19:40:41
Azimuth
Unknown
Elevation
Unknown
Doppler factor
Unknown
Orbital elements
Apogee altitude
18,091.75 km
Perigee altitude
516.418 km
Semi-major axis
15,682.221 km
Eccentricity
0.56036
Inclination
65.3928°
RAAN
236.0559°
Arg. of periapsis
240.2373°
True anomaly
119.85652°
Mean anomaly
53.0398°
Eccentric anomaly
85.02502°
Mean motion
1.10518 °/min
Orbital period
325.74 mins
BSTAR
0.0026179
Loading maneuver chart data...
Computing Atmospheric mass density...
Loading historical data...
Loading historical data...
Loading historical data...
Loading historical data...
Loading historical data...
Loading historical data...
Loading historical data...

Documentation

Showing up to 5 results
|